Time,TemperatureF,DewpointF,PressureIn,WindDirection,WindDirectionDegrees,WindSpeedMPH,WindSpeedGustMPH,Humidity,HourlyPrecipIn,Conditions,Clouds,dailyrainin,SoftwareType,DateUTC
2013-04-25 00:03:00,50.5,49.1,29.99,NW,323,0.0,7.0,95,0.00,,,0.00,meteohub,2013-04-25 07:03:00,
2013-04-25 00:08:00,50.5,49.1,29.99,SE,124,0.0,6.0,95,0.00,,,0.00,meteohub,2013-04-25 07:08:00,
2013-04-25 00:13:00,50.5,49.1,29.99,SW,234,0.0,5.0,95,0.00,,,0.00,meteohub,2013-04-25 07:13:00,
2013-04-25 00:18:00,50.7,49.3,29.99,NW,326,0.0,4.0,95,0.00,,,0.00,meteohub,2013-04-25 07:18:00,
2013-04-25 00:23:00,50.7,49.3,29.99,NNW,327,0.0,4.0,95,0.00,,,0.00,meteohub,2013-04-25 07:23:00,
2013-04-25 00:28:00,50.7,49.3,29.99,NE,35,0.0,5.0,95,0.00,,,0.00,meteohub,2013-04-25 07:28:00,
2013-04-25 00:33:00,50.7,49.3,29.99,SSE,168,1.0,5.0,95,0.00,,,0.00,meteohub,2013-04-25 07:33:00,
2013-04-25 00:38:00,50.7,49.3,29.99,NE,54,1.0,5.0,95,0.00,,,0.00,meteohub,2013-04-25 07:38:00,
2013-04-25 00:44:00,50.7,49.3,29.99,ENE,58,0.0,8.0,95,0.00,,,0.00,meteohub,2013-04-25 07:44:00,
2013-04-25 00:49:00,50.7,49.6,29.99,South,169,0.0,8.0,96,0.00,,,0.00,meteohub,2013-04-25 07:49:00,
2013-04-25 00:54:00,50.9,49.8,29.99,NE,54,0.0,8.0,96,0.00,,,0.00,meteohub,2013-04-25 07:54:00,
2013-04-25 00:59:00,50.9,49.8,29.99,East,96,0.0,4.0,96,0.00,,,0.00,meteohub,2013-04-25 07:59:00,
2013-04-25 01:04:00,51.1,50.0,29.99,ENE,63,0.0,4.0,96,0.00,,,0.00,meteohub,2013-04-25 08:04:00,
2013-04-25 01:09:00,51.1,50.0,29.99,WNW,299,7.0,7.0,96,0.00,,,0.00,meteohub,2013-04-25 08:09:00,
2013-04-25 01:14:00,51.1,50.0,29.99,North,350,0.0,4.0,96,0.00,,,0.00,meteohub,2013-04-25 08:14:00,
2013-04-25 01:19:00,51.1,50.0,30.00,North,355,0.0,7.0,96,0.00,,,0.00,meteohub,2013-04-25 08:19:00,
2013-04-25 01:24:00,51.1,50.0,30.00,NW,305,4.0,7.0,96,0.00,,,0.00,meteohub,2013-04-25 08:24:00,
2013-04-25 01:29:00,51.1,50.0,30.00,ENE,63,2.0,6.0,96,0.00,,,0.00,meteohub,2013-04-25 08:29:00,
2013-04-25 01:34:00,51.1,50.0,30.00,East,97,2.0,6.0,96,0.00,,,0.00,meteohub,2013-04-25 08:34:00,
2013-04-25 01:39:00,51.1,50.0,30.00,NE,45,1.0,5.0,96,0.00,,,0.00,meteohub,2013-04-25 08:39:00,
2013-04-25 01:44:00,51.1,50.0,30.00,ENE,57,0.0,5.0,96,0.00,,,0.00,meteohub,2013-04-25 08:44:00,
2013-04-25 01:49:00,51.1,50.0,30.00,ENE,65,3.0,5.0,96,0.00,,,0.00,meteohub,2013-04-25 08:49:00,
2013-04-25 01:54:00,51.1,50.0,30.00,ENE,71,0.0,6.0,96,0.00,,,0.00,meteohub,2013-04-25 08:54:00,
2013-04-25 01:59:00,51.1,50.0,30.00,ENE,63,4.0,6.0,96,0.00,,,0.00,meteohub,2013-04-25 08:59:00,
2013-04-25 02:04:00,50.9,49.8,29.99,NE,36,1.0,6.0,96,0.00,,,0.00,meteohub,2013-04-25 09:04:00,
2013-04-25 02:09:00,50.9,49.8,29.99,ENE,76,3.0,5.0,96,0.00,,,0.00,meteohub,2013-04-25 09:09:00,
2013-04-25 02:14:00,50.9,49.8,29.99,NNE,28,1.0,7.0,96,0.00,,,0.00,meteohub,2013-04-25 09:14:00,
2013-04-25 02:19:00,50.9,49.8,30.00,East,91,0.0,7.0,96,0.00,,,0.00,meteohub,2013-04-25 09:19:00,
2013-04-25 02:24:00,50.9,49.8,30.00,East,94,1.0,7.0,96,0.00,,,0.00,meteohub,2013-04-25 09:24:00,
2013-04-25 02:29:00,50.7,49.6,30.00,ENE,78,1.0,7.0,96,0.00,,,0.00,meteohub,2013-04-25 09:29:00,
2013-04-25 02:34:00,50.7,49.6,30.00,ESE,102,1.0,6.0,96,0.00,,,0.00,meteohub,2013-04-25 09:34:00,
2013-04-25 02:39:00,50.7,49.6,30.00,SSW,200,0.0,6.0,96,0.00,,,0.00,meteohub,2013-04-25 09:39:00,
2013-04-25 02:44:00,50.7,49.6,30.00,North,355,1.0,5.0,96,0.00,,,0.00,meteohub,2013-04-25 09:44:00,
2013-04-25 02:49:00,50.7,49.8,30.00,ENE,72,1.0,6.0,97,0.00,,,0.00,meteohub,2013-04-25 09:49:00,
2013-04-25 02:54:00,50.9,49.8,30.00,NE,38,1.0,6.0,96,0.00,,,0.00,meteohub,2013-04-25 09:54:00,
2013-04-25 02:59:00,50.9,49.8,30.00,ESE,121,2.0,6.0,96,0.00,,,0.00,meteohub,2013-04-25 09:59:00,
2013-04-25 03:04:00,51.1,50.0,30.00,NE,43,2.0,4.0,96,0.00,,,0.00,meteohub,2013-04-25 10:04:00,
2013-04-25 03:10:00,51.1,50.0,30.00,NNE,22,5.0,5.0,96,0.00,,,0.00,meteohub,2013-04-25 10:10:00,
2013-04-25 03:15:00,51.1,50.0,29.99,NNE,17,3.0,6.0,96,0.00,,,0.00,meteohub,2013-04-25 10:15:00,
2013-04-25 03:20:00,51.1,50.0,30.00,NNE,30,3.0,6.0,96,0.00,,,0.00,meteohub,2013-04-25 10:20:00,
2013-04-25 03:25:00,51.1,50.0,30.00,East,91,0.0,7.0,96,0.00,,,0.00,meteohub,2013-04-25 10:25:00,
2013-04-25 03:30:00,51.1,50.0,30.00,ENE,62,3.0,7.0,96,0.00,,,0.00,meteohub,2013-04-25 10:30:00,
2013-04-25 03:35:00,51.1,50.0,30.00,North,5,3.0,7.0,96,0.00,,,0.00,meteohub,2013-04-25 10:35:00,
2013-04-25 03:40:00,51.1,50.0,30.00,SE,134,1.0,7.0,96,0.00,,,0.00,meteohub,2013-04-25 10:40:00,
2013-04-25 03:45:00,51.1,50.0,30.00,NNE,32,4.0,7.0,96,0.00,,,0.00,meteohub,2013-04-25 10:45:00,
2013-04-25 03:50:00,51.1,50.0,30.00,SSE,159,1.0,6.0,96,0.00,,,0.00,meteohub,2013-04-25 10:50:00,
2013-04-25 03:55:00,51.1,50.0,30.00,East,101,3.0,7.0,96,0.00,,,0.00,meteohub,2013-04-25 10:55:00,
2013-04-25 04:00:00,51.3,50.2,30.00,NE,55,1.0,7.0,96,0.00,,,0.00,meteohub,2013-04-25 11:00:00,
2013-04-25 04:05:00,51.3,50.2,30.00,ENE,67,3.0,6.0,96,0.00,,,0.00,meteohub,2013-04-25 11:05:00,
2013-04-25 04:10:00,51.4,50.4,30.00,NE,44,3.0,6.0,96,0.00,,,0.00,meteohub,2013-04-25 11:10:00,
2013-04-25 04:15:00,51.4,50.4,30.00,NE,34,4.0,7.0,96,0.00,,,0.00,meteohub,2013-04-25 11:15:00,
2013-04-25 04:20:00,51.4,50.4,30.00,North,0,0.0,7.0,96,0.00,,,0.00,meteohub,2013-04-25 11:20:00,
2013-04-25 04:25:00,51.4,50.4,30.00,ENE,57,3.0,7.0,96,0.00,,,0.00,meteohub,2013-04-25 11:25:00,
2013-04-25 04:30:00,51.6,50.5,30.01,NE,42,3.0,7.0,96,0.00,,,0.00,meteohub,2013-04-25 11:30:00,
2013-04-25 04:35:00,51.6,50.2,30.01,ENE,73,1.0,7.0,95,0.00,,,0.00,meteohub,2013-04-25 11:35:00,
2013-04-25 04:40:00,51.6,50.2,30.01,ENE,58,5.0,8.0,95,0.00,,,0.00,meteohub,2013-04-25 11:40:00,
2013-04-25 04:45:00,51.6,50.2,30.01,NNE,13,3.0,8.0,95,0.00,,,0.00,meteohub,2013-04-25 11:45:00,
2013-04-25 04:50:00,51.8,50.4,30.01,NE,52,3.0,8.0,95,0.00,,,0.00,meteohub,2013-04-25 11:50:00,
2013-04-25 04:55:00,51.8,50.4,30.01,ENE,60,2.0,7.0,95,0.00,,,0.00,meteohub,2013-04-25 11:55:00,
2013-04-25 05:00:00,52.0,50.5,30.01,ENE,63,3.0,5.0,95,0.00,,,0.00,meteohub,2013-04-25 12:00:00,
2013-04-25 05:05:00,52.0,50.5,30.01,East,85,5.0,5.0,95,0.00,,,0.00,meteohub,2013-04-25 12:05:00,
2013-04-25 05:10:00,52.0,50.5,30.02,ENE,67,4.0,6.0,95,0.00,,,0.00,meteohub,2013-04-25 12:10:00,
2013-04-25 05:15:00,52.0,50.4,30.01,ENE,78,4.0,7.0,94,0.00,,,0.00,meteohub,2013-04-25 12:15:00,
2013-04-25 05:20:00,52.0,50.4,30.01,ESE,109,0.0,7.0,94,0.00,,,0.00,meteohub,2013-04-25 12:20:00,
2013-04-25 05:25:00,52.0,50.4,30.01,NE,52,3.0,7.0,94,0.00,,,0.00,meteohub,2013-04-25 12:25:00,
2013-04-25 05:30:00,52.0,50.4,30.01,East,86,0.0,6.0,94,0.00,,,0.00,meteohub,2013-04-25 12:30:00,
2013-04-25 05:35:00,52.0,50.4,30.02,NE,39,2.0,6.0,94,0.00,,,0.00,meteohub,2013-04-25 12:35:00,
2013-04-25 05:40:00,52.0,50.4,30.02,North,0,1.0,5.0,94,0.00,,,0.00,meteohub,2013-04-25 12:40:00,
2013-04-25 05:45:00,52.0,50.4,30.02,NE,55,1.0,5.0,94,0.00,,,0.00,meteohub,2013-04-25 12:45:00,
2013-04-25 05:50:00,52.0,50.4,30.02,NNW,339,0.0,5.0,94,0.00,,,0.00,meteohub,2013-04-25 12:50:00,
2013-04-25 05:56:00,52.0,50.4,30.02,NW,310,3.0,7.0,94,0.00,,,0.00,meteohub,2013-04-25 12:56:00,
2013-04-25 06:01:00,52.0,50.4,30.02,NW,317,2.0,7.0,94,0.00,,,0.00,meteohub,2013-04-25 13:01:00,
2013-04-25 06:06:00,52.0,50.4,30.03,WNW,289,6.0,9.0,94,0.00,,,0.00,meteohub,2013-04-25 13:06:00,
2013-04-25 06:11:00,52.0,50.4,30.03,NNE,17,4.0,9.0,94,0.00,,,0.00,meteohub,2013-04-25 13:11:00,
2013-04-25 06:16:00,52.0,50.5,30.03,NE,51,2.0,9.0,95,0.00,,,0.00,meteohub,2013-04-25 13:16:00,
2013-04-25 06:21:00,51.8,50.4,30.03,North,5,0.0,9.0,95,0.00,,,0.00,meteohub,2013-04-25 13:21:00,
2013-04-25 06:26:00,51.8,50.4,30.04,NNW,334,1.0,9.0,95,0.00,,,0.00,meteohub,2013-04-25 13:26:00,
2013-04-25 06:31:00,51.8,50.4,30.03,ENE,57,0.0,6.0,95,0.00,,,0.00,meteohub,2013-04-25 13:31:00,
2013-04-25 06:36:00,51.8,50.4,30.03,ENE,59,2.0,4.0,95,0.00,,,0.00,meteohub,2013-04-25 13:36:00,
2013-04-25 06:41:00,51.6,50.2,30.03,North,355,3.0,4.0,95,0.00,,,0.00,meteohub,2013-04-25 13:41:00,
2013-04-25 06:46:00,51.6,50.2,30.03,ESE,114,3.0,4.0,95,0.00,,,0.00,meteohub,2013-04-25 13:46:00,
2013-04-25 06:51:00,51.6,50.2,30.04,NW,323,3.0,4.0,95,0.00,,,0.00,meteohub,2013-04-25 13:51:00,
2013-04-25 06:56:00,51.6,50.2,30.04,WNW,302,0.0,4.0,95,0.00,,,0.00,meteohub,2013-04-25 13:56:00,
2013-04-25 07:01:00,51.6,50.2,30.05,WNW,302,0.0,5.0,95,0.00,,,0.00,meteohub,2013-04-25 14:01:00,
2013-04-25 07:06:00,51.8,50.4,30.04,WNW,286,0.0,5.0,95,0.00,,,0.00,meteohub,2013-04-25 14:06:00,
2013-04-25 07:11:00,51.6,50.2,30.04,NNW,336,0.0,4.0,95,0.00,,,0.00,meteohub,2013-04-25 14:11:00,
2013-04-25 07:16:00,51.6,50.2,30.05,NW,321,1.0,5.0,95,0.00,,,0.00,meteohub,2013-04-25 14:16:00,
2013-04-25 07:21:00,51.8,50.4,30.05,NE,34,0.0,6.0,95,0.00,,,0.00,meteohub,2013-04-25 14:21:00,
2013-04-25 07:26:00,51.8,50.4,30.06,NE,35,0.0,6.0,95,0.00,,,0.00,meteohub,2013-04-25 14:26:00,
2013-04-25 07:31:00,51.6,50.2,30.06,SSW,197,0.0,6.0,95,0.00,,,0.00,meteohub,2013-04-25 14:31:00,
2013-04-25 07:36:00,51.6,50.2,30.06,SSE,167,2.0,5.0,95,0.00,,,0.00,meteohub,2013-04-25 14:36:00,
2013-04-25 07:41:00,51.8,50.7,30.06,ESE,102,3.0,5.0,96,0.00,,,0.00,meteohub,2013-04-25 14:41:00,
2013-04-25 07:46:00,51.8,50.7,30.06,South,175,0.0,5.0,96,0.00,,,0.00,meteohub,2013-04-25 14:46:00,
2013-04-25 07:51:00,51.6,50.2,30.06,WSW,254,2.0,3.0,95,0.00,,,0.00,meteohub,2013-04-25 14:51:00,
2013-04-25 07:56:00,51.6,50.5,30.06,WSW,248,0.0,5.0,96,0.00,,,0.00,meteohub,2013-04-25 14:56:00,
2013-04-25 08:01:00,51.6,50.2,30.06,NW,323,0.0,5.0,95,0.00,,,0.00,meteohub,2013-04-25 15:01:00,
2013-04-25 08:06:00,51.6,50.2,30.07,WNW,295,0.0,5.0,95,0.00,,,0.00,meteohub,2013-04-25 15:06:00,
2013-04-25 08:11:00,51.6,50.2,30.07,NW,323,3.0,4.0,95,0.00,,,0.00,meteohub,2013-04-25 15:11:00,
2013-04-25 08:16:00,51.6,50.2,30.08,West,270,2.0,4.0,95,0.00,,,0.00,meteohub,2013-04-25 15:16:00,
2013-04-25 08:21:00,51.6,50.2,30.07,WNW,297,1.0,4.0,95,0.00,,,0.00,meteohub,2013-04-25 15:21:00,
2013-04-25 08:26:00,51.8,50.4,30.07,WNW,298,0.0,4.0,95,0.00,,,0.00,meteohub,2013-04-25 15:26:00,
2013-04-25 08:31:00,52.0,50.5,30.07,WNW,296,5.0,5.0,95,0.00,,,0.00,meteohub,2013-04-25 15:31:00,
2013-04-25 08:36:00,52.0,50.5,30.07,West,281,1.0,5.0,95,0.00,,,0.00,meteohub,2013-04-25 15:36:00,
2013-04-25 08:41:00,52.0,50.5,30.06,SSE,153,0.0,5.0,95,0.00,,,0.00,meteohub,2013-04-25 15:41:00,
2013-04-25 08:46:00,52.2,50.7,30.07,SSE,153,0.0,5.0,95,0.00,,,0.00,meteohub,2013-04-25 15:46:00,
2013-04-25 08:52:00,52.3,50.7,30.08,NNW,329,4.0,4.0,94,0.00,,,0.00,meteohub,2013-04-25 15:52:00,
2013-04-25 08:57:00,52.3,50.7,30.08,North,5,1.0,6.0,94,0.00,,,0.00,meteohub,2013-04-25 15:57:00,
2013-04-25 09:02:00,52.3,50.7,30.08,WNW,298,2.0,6.0,94,0.00,,,0.00,meteohub,2013-04-25 16:02:00,
2013-04-25 09:07:00,52.3,50.7,30.08,SE,143,0.0,6.0,94,0.00,,,0.00,meteohub,2013-04-25 16:07:00,
2013-04-25 09:12:00,52.5,50.9,30.08,WNW,297,4.0,4.0,94,0.00,,,0.00,meteohub,2013-04-25 16:12:00,
2013-04-25 09:17:00,52.5,50.5,30.09,WSW,246,0.0,4.0,93,0.00,,,0.00,meteohub,2013-04-25 16:17:00,
2013-04-25 09:22:00,52.9,50.9,30.09,WSW,249,0.0,4.0,93,0.00,,,0.00,meteohub,2013-04-25 16:22:00,
2013-04-25 09:27:00,52.9,50.9,30.09,West,267,0.0,5.0,93,0.00,,,0.00,meteohub,2013-04-25 16:27:00,
2013-04-25 09:32:00,52.7,50.4,30.09,NNW,338,1.0,5.0,92,0.00,,,0.00,meteohub,2013-04-25 16:32:00,
2013-04-25 09:37:00,52.5,50.5,30.09,SSW,210,2.0,6.0,93,0.00,,,0.00,meteohub,2013-04-25 16:37:00,
2013-04-25 09:42:00,52.5,50.2,30.09,NW,304,0.0,6.0,92,0.00,,,0.00,meteohub,2013-04-25 16:42:00,
2013-04-25 09:47:00,52.9,50.9,30.10,NNW,328,1.0,7.0,93,0.00,,,0.00,meteohub,2013-04-25 16:47:00,
2013-04-25 09:52:00,52.9,50.5,30.10,NNW,330,2.0,8.0,92,0.00,,,0.00,meteohub,2013-04-25 16:52:00,
2013-04-25 09:57:00,52.7,50.4,30.10,NW,315,0.0,8.0,92,0.00,,,0.00,meteohub,2013-04-25 16:57:00,
2013-04-25 10:02:00,52.7,50.4,30.10,NNW,330,4.0,8.0,92,0.00,,,0.00,meteohub,2013-04-25 17:02:00,
2013-04-25 10:07:00,52.7,50.4,30.10,ESE,115,3.0,7.0,92,0.00,,,0.00,meteohub,2013-04-25 17:07:00,
2013-04-25 10:12:00,53.1,50.7,30.10,NE,44,1.0,7.0,92,0.00,,,0.00,meteohub,2013-04-25 17:12:00,
2013-04-25 10:17:00,53.1,50.7,30.10,SSE,155,3.0,7.0,92,0.00,,,0.00,meteohub,2013-04-25 17:17:00,
2013-04-25 10:22:00,53.1,50.5,30.10,NNW,333,2.0,7.0,91,0.00,,,0.00,meteohub,2013-04-25 17:22:00,
2013-04-25 10:27:00,53.1,50.7,30.11,NNW,345,1.0,6.0,92,0.00,,,0.00,meteohub,2013-04-25 17:27:00,
2013-04-25 10:32:00,53.2,50.7,30.11,NW,320,3.0,6.0,91,0.00,,,0.00,meteohub,2013-04-25 17:32:00,
2013-04-25 10:37:00,53.1,50.5,30.11,SSW,207,2.0,7.0,91,0.00,,,0.00,meteohub,2013-04-25 17:37:00,
2013-04-25 10:42:00,53.2,50.7,30.11,South,178,2.0,7.0,91,0.00,,,0.00,meteohub,2013-04-25 17:42:00,
2013-04-25 10:46:00,53.2,50.7,30.11,South,179,3.0,7.0,91,0.00,,,0.00,meteohub,2013-04-25 17:46:00,
2013-04-25 10:52:00,53.2,50.7,30.11,West,275,2.0,6.0,91,0.00,,,0.00,meteohub,2013-04-25 17:52:00,
2013-04-25 10:57:00,53.8,51.3,30.12,NNE,22,3.0,6.0,91,0.00,,,0.00,meteohub,2013-04-25 17:57:00,
2013-04-25 11:02:00,53.8,50.9,30.12,South,184,1.0,6.0,90,0.00,,,0.00,meteohub,2013-04-25 18:02:00,
2013-04-25 11:07:00,53.8,50.9,30.12,North,5,3.0,6.0,90,0.00,,,0.00,meteohub,2013-04-25 18:07:00,
2013-04-25 11:12:00,53.8,50.9,30.12,South,190,5.0,8.0,90,0.00,,,0.00,meteohub,2013-04-25 18:12:00,
2013-04-25 11:17:00,53.8,50.5,30.12,South,182,0.0,8.0,89,0.00,,,0.00,meteohub,2013-04-25 18:17:00,
2013-04-25 11:22:00,53.8,50.5,30.12,ESE,103,0.0,7.0,89,0.00,,,0.00,meteohub,2013-04-25 18:22:00,
2013-04-25 11:27:00,54.1,50.9,30.12,NW,320,4.0,6.0,89,0.00,,,0.00,meteohub,2013-04-25 18:27:00,
2013-04-25 11:32:00,54.0,50.7,30.12,South,180,4.0,8.0,89,0.00,,,0.00,meteohub,2013-04-25 18:32:00,
2013-04-25 11:37:00,54.1,50.9,30.12,West,274,0.0,8.0,89,0.00,,,0.00,meteohub,2013-04-25 18:37:00,
2013-04-25 11:42:00,54.9,51.1,30.12,NW,306,4.0,8.0,87,0.00,,,0.00,meteohub,2013-04-25 18:42:00,
2013-04-25 11:47:00,54.5,50.7,30.12,SW,232,0.0,8.0,87,0.00,,,0.00,meteohub,2013-04-25 18:47:00,
2013-04-25 11:52:00,54.7,50.9,30.12,WSW,246,1.0,9.0,87,0.00,,,0.00,meteohub,2013-04-25 18:52:00,
2013-04-25 11:57:00,54.5,51.1,30.12,South,190,3.0,9.0,88,0.00,,,0.00,meteohub,2013-04-25 18:57:00,
2013-04-25 12:02:00,54.9,51.1,30.12,South,181,3.0,9.0,87,0.00,,,0.00,meteohub,2013-04-25 19:02:00,
2013-04-25 12:07:00,55.0,50.9,30.12,SW,214,2.0,9.0,86,0.00,,,0.00,meteohub,2013-04-25 19:07:00,
2013-04-25 12:12:00,54.9,50.7,30.12,SSW,194,0.0,9.0,86,0.00,,,0.00,meteohub,2013-04-25 19:12:00,
2013-04-25 12:17:00,55.2,51.1,30.12,South,173,0.0,9.0,86,0.00,,,0.00,meteohub,2013-04-25 19:17:00,
2013-04-25 12:22:00,55.2,50.7,30.12,NW,323,6.0,9.0,85,0.00,,,0.00,meteohub,2013-04-25 19:22:00,
2013-04-25 12:27:00,55.0,50.9,30.12,SE,128,1.0,9.0,86,0.00,,,0.00,meteohub,2013-04-25 19:27:00,
2013-04-25 12:32:00,55.2,50.7,30.12,NW,314,4.0,8.0,85,0.00,,,0.00,meteohub,2013-04-25 19:32:00,
2013-04-25 12:37:00,55.0,50.5,30.12,SSE,163,2.0,10.0,85,0.00,,,0.00,meteohub,2013-04-25 19:37:00,
2013-04-25 12:42:00,55.2,50.7,30.12,West,280,4.0,10.0,85,0.00,,,0.00,meteohub,2013-04-25 19:42:00,
2013-04-25 12:47:00,55.4,50.7,30.12,WNW,298,2.0,10.0,84,0.00,,,0.00,meteohub,2013-04-25 19:47:00,
2013-04-25 12:52:00,55.8,51.1,30.12,North,355,3.0,9.0,84,0.00,,,0.00,meteohub,2013-04-25 19:52:00,
2013-04-25 12:57:00,55.0,50.4,30.12,South,178,6.0,9.0,84,0.00,,,0.00,meteohub,2013-04-25 19:57:00,
2013-04-25 13:02:00,55.0,50.5,30.12,North,0,2.0,9.0,85,0.00,,,0.00,meteohub,2013-04-25 20:02:00,
2013-04-25 13:07:00,55.8,51.1,30.12,NNW,347,3.0,9.0,84,0.00,,,0.00,meteohub,2013-04-25 20:07:00,
2013-04-25 13:12:00,55.9,50.9,30.11,SE,138,5.0,9.0,83,0.00,,,0.00,meteohub,2013-04-25 20:12:00,
2013-04-25 13:17:00,56.1,51.1,30.12,SSW,198,1.0,9.0,83,0.00,,,0.00,meteohub,2013-04-25 20:17:00,
2013-04-25 13:22:00,55.8,50.7,30.12,WNW,286,4.0,13.0,83,0.00,,,0.00,meteohub,2013-04-25 20:22:00,
2013-04-25 13:27:00,55.9,51.3,30.12,East,92,1.0,13.0,84,0.00,,,0.00,meteohub,2013-04-25 20:27:00,
2013-04-25 13:32:00,56.7,51.6,30.12,North,355,1.0,13.0,83,0.00,,,0.00,meteohub,2013-04-25 20:32:00,
2013-04-25 13:37:00,56.5,51.1,30.12,NW,315,0.0,8.0,82,0.00,,,0.00,meteohub,2013-04-25 20:37:00,
2013-04-25 13:42:00,56.1,51.1,30.12,NW,316,0.0,11.0,83,0.00,,,0.00,meteohub,2013-04-25 20:42:00,
2013-04-25 13:47:00,56.1,51.1,30.13,NNE,26,1.0,11.0,83,0.00,,,0.00,meteohub,2013-04-25 20:47:00,
2013-04-25 13:52:00,56.1,50.7,30.13,NNW,337,4.0,11.0,82,0.00,,,0.00,meteohub,2013-04-25 20:52:00,
2013-04-25 13:57:00,55.9,50.5,30.13,North,355,2.0,9.0,82,0.00,,,0.00,meteohub,2013-04-25 20:57:00,
2013-04-25 14:02:00,55.4,50.7,30.13,East,98,0.0,11.0,84,0.00,,,0.00,meteohub,2013-04-25 21:02:00,
2013-04-25 14:07:00,55.6,50.5,30.13,NNE,24,2.0,15.0,83,0.00,,,0.00,meteohub,2013-04-25 21:07:00,
2013-04-25 14:12:00,56.1,51.1,30.13,NNW,345,1.0,15.0,83,0.00,,,0.00,meteohub,2013-04-25 21:12:00,
2013-04-25 14:17:00,56.7,51.3,30.13,NNW,327,3.0,15.0,82,0.00,,,0.00,meteohub,2013-04-25 21:17:00,
2013-04-25 14:22:00,56.1,50.7,30.13,NNW,338,7.0,11.0,82,0.00,,,0.00,meteohub,2013-04-25 21:22:00,
2013-04-25 14:27:00,56.8,50.7,30.13,NNW,338,6.0,12.0,80,0.00,,,0.00,meteohub,2013-04-25 21:27:00,
2013-04-25 14:32:00,56.7,50.9,30.13,WNW,302,7.0,12.0,81,0.00,,,0.00,meteohub,2013-04-25 21:32:00,
2013-04-25 14:37:00,57.0,51.3,30.13,NNE,14,4.0,12.0,81,0.00,,,0.00,meteohub,2013-04-25 21:37:00,
2013-04-25 14:42:00,57.0,50.9,30.13,NW,319,4.0,12.0,80,0.00,,,0.00,meteohub,2013-04-25 21:42:00,
2013-04-25 14:47:00,57.6,51.1,30.13,NNW,344,5.0,14.0,79,0.00,,,0.00,meteohub,2013-04-25 21:47:00,
2013-04-25 14:52:00,56.8,51.1,30.13,SW,227,4.0,15.0,81,0.00,,,0.00,meteohub,2013-04-25 21:52:00,
2013-04-25 14:57:00,57.0,51.3,30.13,WNW,296,5.0,15.0,81,0.00,,,0.00,meteohub,2013-04-25 21:57:00,
2013-04-25 15:02:00,57.4,51.3,30.13,North,9,1.0,15.0,80,0.00,,,0.00,meteohub,2013-04-25 22:02:00,
2013-04-25 15:07:00,57.6,51.1,30.12,North,350,14.0,14.0,79,0.00,,,0.00,meteohub,2013-04-25 22:07:00,
2013-04-25 15:12:00,57.4,51.3,30.12,East,81,2.0,15.0,80,0.00,,,0.00,meteohub,2013-04-25 22:12:00,
2013-04-25 15:17:00,57.6,51.1,30.12,NNW,328,5.0,15.0,79,0.00,,,0.00,meteohub,2013-04-25 22:17:00,
2013-04-25 15:22:00,57.4,51.3,30.12,West,271,1.0,15.0,80,0.00,,,0.00,meteohub,2013-04-25 22:22:00,
2013-04-25 15:27:00,57.6,51.4,30.12,NNW,331,5.0,11.0,80,0.00,,,0.00,meteohub,2013-04-25 22:27:00,
2013-04-25 15:32:00,57.6,50.7,30.12,NE,35,3.0,11.0,78,0.00,,,0.00,meteohub,2013-04-25 22:32:00,
2013-04-25 15:37:00,57.4,50.9,30.12,NNW,331,4.0,12.0,79,0.00,,,0.00,meteohub,2013-04-25 22:37:00,
2013-04-25 15:42:00,57.6,50.7,30.12,North,11,2.0,12.0,78,0.00,,,0.00,meteohub,2013-04-25 22:42:00,
2013-04-25 15:47:00,57.7,51.3,30.12,SW,215,6.0,12.0,79,0.00,,,0.00,meteohub,2013-04-25 22:47:00,
2013-04-25 15:52:00,57.4,50.9,30.12,NNE,21,2.0,11.0,79,0.00,,,0.00,meteohub,2013-04-25 22:52:00,
2013-04-25 15:57:00,57.2,50.7,30.12,WSW,244,3.0,12.0,79,0.00,,,0.00,meteohub,2013-04-25 22:57:00,
2013-04-25 16:02:00,57.0,50.5,30.12,NNW,346,6.0,12.0,79,0.00,,,0.00,meteohub,2013-04-25 23:02:00,
2013-04-25 16:07:00,56.1,50.0,30.12,North,5,1.0,15.0,80,0.00,,,0.00,meteohub,2013-04-25 23:07:00,
2013-04-25 16:12:00,55.9,50.2,30.12,NNE,15,3.0,15.0,81,0.00,,,0.00,meteohub,2013-04-25 23:12:00,
2013-04-25 16:17:00,55.8,50.0,30.12,NNW,331,4.0,15.0,81,0.00,,,0.00,meteohub,2013-04-25 23:17:00,
2013-04-25 16:22:00,56.1,50.4,30.12,WNW,291,4.0,15.0,81,0.00,,,0.00,meteohub,2013-04-25 23:22:00,
2013-04-25 16:27:00,56.3,50.2,30.12,NW,314,1.0,15.0,80,0.00,,,0.00,meteohub,2013-04-25 23:27:00,
2013-04-25 16:32:00,55.9,50.2,30.12,NNE,24,7.0,15.0,81,0.00,,,0.00,meteohub,2013-04-25 23:32:00,
2013-04-25 16:37:00,55.9,50.2,30.12,WNW,290,4.0,14.0,81,0.00,,,0.00,meteohub,2013-04-25 23:37:00,
2013-04-25 16:42:00,55.9,49.8,30.12,NNW,346,8.0,14.0,80,0.00,,,0.00,meteohub,2013-04-25 23:42:00,
2013-04-25 16:47:00,55.9,50.2,30.12,WNW,300,4.0,15.0,81,0.00,,,0.00,meteohub,2013-04-25 23:47:00,
2013-04-25 16:52:00,56.1,50.4,30.12,WNW,297,1.0,15.0,81,0.00,,,0.00,meteohub,2013-04-25 23:52:00,
2013-04-25 16:57:00,55.9,50.2,30.12,NNW,346,5.0,14.0,81,0.00,,,0.00,meteohub,2013-04-25 23:57:00,
2013-04-25 17:02:00,55.8,50.0,30.12,North,355,3.0,14.0,81,0.00,,,0.00,meteohub,2013-04-26 00:02:00,
2013-04-25 17:07:00,55.9,50.2,30.12,NNE,26,10.0,14.0,81,0.00,,,0.00,meteohub,2013-04-26 00:07:00,
2013-04-25 17:12:00,55.9,50.2,30.12,North,355,9.0,13.0,81,0.00,,,0.00,meteohub,2013-04-26 00:12:00,
2013-04-25 17:17:00,55.8,50.0,30.12,NNE,28,3.0,14.0,81,0.00,,,0.00,meteohub,2013-04-26 00:17:00,
2013-04-25 17:22:00,55.8,50.0,30.12,NNW,335,11.0,14.0,81,0.00,,,0.00,meteohub,2013-04-26 00:22:00,
2013-04-25 17:27:00,55.9,50.2,30.12,NNE,26,5.0,14.0,81,0.00,,,0.00,meteohub,2013-04-26 00:27:00,
2013-04-25 17:32:00,55.9,50.5,30.12,North,11,7.0,11.0,82,0.00,,,0.00,meteohub,2013-04-26 00:32:00,
2013-04-25 17:37:00,55.8,50.0,30.12,North,11,5.0,11.0,81,0.00,,,0.00,meteohub,2013-04-26 00:37:00,
2013-04-25 17:42:00,55.8,50.0,30.12,NNW,346,3.0,11.0,81,0.00,,,0.00,meteohub,2013-04-26 00:42:00,
2013-04-25 17:47:00,55.6,49.5,30.12,North,355,9.0,11.0,80,0.00,,,0.00,meteohub,2013-04-26 00:47:00,
2013-04-25 17:52:00,55.2,49.5,30.12,NNW,345,3.0,13.0,81,0.00,,,0.00,meteohub,2013-04-26 00:52:00,
2013-04-25 17:57:00,55.2,49.5,30.12,NNW,329,6.0,15.0,81,0.00,,,0.00,meteohub,2013-04-26 00:57:00,
2013-04-25 18:02:00,55.4,49.3,30.13,North,350,2.0,15.0,80,0.00,,,0.00,meteohub,2013-04-26 01:02:00,
2013-04-25 18:07:00,55.4,49.3,30.12,North,0,5.0,15.0,80,0.00,,,0.00,meteohub,2013-04-26 01:07:00,
2013-04-25 18:12:00,55.2,49.1,30.13,NW,321,6.0,14.0,80,0.00,,,0.00,meteohub,2013-04-26 01:12:00,
2013-04-25 18:17:00,55.0,48.9,30.13,NW,326,3.0,17.0,80,0.00,,,0.00,meteohub,2013-04-26 01:17:00,
2013-04-25 18:22:00,55.0,49.3,30.13,West,271,2.0,17.0,81,0.00,,,0.00,meteohub,2013-04-26 01:22:00,
2013-04-25 18:27:00,54.7,48.9,30.13,NNW,348,8.0,17.0,81,0.00,,,0.00,meteohub,2013-04-26 01:27:00,
2013-04-25 18:32:00,54.7,48.9,30.13,NNW,327,6.0,14.0,81,0.00,,,0.00,meteohub,2013-04-26 01:32:00,
2013-04-25 18:37:00,54.3,48.9,30.12,NNW,347,4.0,15.0,82,0.00,,,0.00,meteohub,2013-04-26 01:37:00,
2013-04-25 18:42:00,54.1,48.7,30.12,North,355,4.0,15.0,82,0.00,,,0.00,meteohub,2013-04-26 01:42:00,
2013-04-25 18:47:00,54.0,48.9,30.12,NNW,332,10.0,15.0,83,0.00,,,0.00,meteohub,2013-04-26 01:47:00,
2013-04-25 18:52:00,53.8,49.1,30.12,NNE,13,6.0,13.0,84,0.00,,,0.00,meteohub,2013-04-26 01:52:00,
2013-04-25 18:57:00,53.6,48.9,30.12,NNW,348,6.0,13.0,84,0.00,,,0.00,meteohub,2013-04-26 01:57:00,
2013-04-25 19:02:00,53.4,48.7,30.12,North,355,7.0,13.0,84,0.00,,,0.00,meteohub,2013-04-26 02:02:00,
2013-04-25 19:07:00,53.6,48.9,30.12,NNW,333,0.0,12.0,84,0.00,,,0.00,meteohub,2013-04-26 02:07:00,
2013-04-25 19:12:00,53.4,48.7,30.12,North,355,6.0,12.0,84,0.00,,,0.00,meteohub,2013-04-26 02:12:00,
2013-04-25 19:17:00,53.4,48.7,30.12,North,355,9.0,12.0,84,0.00,,,0.00,meteohub,2013-04-26 02:17:00,
2013-04-25 19:22:00,53.2,48.6,30.13,NW,321,5.0,12.0,84,0.00,,,0.00,meteohub,2013-04-26 02:22:00,
2013-04-25 19:27:00,53.2,48.6,30.13,North,355,4.0,10.0,84,0.00,,,0.00,meteohub,2013-04-26 02:27:00,
2013-04-25 19:32:00,53.1,48.7,30.13,NNW,335,5.0,10.0,85,0.00,,,0.00,meteohub,2013-04-26 02:32:00,
2013-04-25 19:37:00,53.1,48.7,30.13,NNE,16,3.0,10.0,85,0.00,,,0.00,meteohub,2013-04-26 02:37:00,
2013-04-25 19:42:00,52.9,48.6,30.13,WNW,297,2.0,12.0,85,0.00,,,0.00,meteohub,2013-04-26 02:42:00,
2013-04-25 19:47:00,52.9,48.6,30.14,NNE,16,7.0,12.0,85,0.00,,,0.00,meteohub,2013-04-26 02:47:00,
2013-04-25 19:52:00,52.9,48.6,30.14,NNE,24,4.0,13.0,85,0.00,,,0.00,meteohub,2013-04-26 02:52:00,
2013-04-25 19:57:00,52.9,48.6,30.14,NNW,334,0.0,13.0,85,0.00,,,0.00,meteohub,2013-04-26 02:57:00,
2013-04-25 20:02:00,52.7,48.0,30.14,NNE,18,1.0,9.0,84,0.00,,,0.00,meteohub,2013-04-26 03:02:00,
2013-04-25 20:07:00,52.7,48.0,30.14,North,5,3.0,9.0,84,0.00,,,0.00,meteohub,2013-04-26 03:07:00,
2013-04-25 20:12:00,52.5,47.8,30.14,North,11,4.0,9.0,84,0.00,,,0.00,meteohub,2013-04-26 03:12:00,
2013-04-25 20:17:00,52.7,48.4,30.14,NNE,16,2.0,8.0,85,0.00,,,0.00,meteohub,2013-04-26 03:17:00,
2013-04-25 20:22:00,52.5,48.2,30.14,North,5,0.0,10.0,85,0.00,,,0.00,meteohub,2013-04-26 03:22:00,
2013-04-25 20:27:00,52.5,48.2,30.15,NE,49,3.0,10.0,85,0.00,,,0.00,meteohub,2013-04-26 03:27:00,
2013-04-25 20:32:00,52.5,48.2,30.15,NNW,344,2.0,9.0,85,0.00,,,0.00,meteohub,2013-04-26 03:32:00,
2013-04-25 20:37:00,52.5,48.2,30.15,North,0,5.0,9.0,85,0.00,,,0.00,meteohub,2013-04-26 03:37:00,
2013-04-25 20:42:00,52.5,48.2,30.14,NW,325,6.0,8.0,85,0.00,,,0.00,meteohub,2013-04-26 03:42:00,
2013-04-25 20:47:00,52.5,48.2,30.14,NNE,12,1.0,9.0,85,0.00,,,0.00,meteohub,2013-04-26 03:47:00,
2013-04-25 20:52:00,52.5,48.2,30.14,WSW,246,1.0,9.0,85,0.00,,,0.00,meteohub,2013-04-26 03:52:00,
2013-04-25 20:57:00,52.3,48.0,30.15,WNW,291,2.0,9.0,85,0.00,,,0.00,meteohub,2013-04-26 03:57:00,
2013-04-25 21:01:00,52.3,48.0,30.15,NE,49,0.0,9.0,85,0.00,,,0.00,meteohub,2013-04-26 04:01:00,
2013-04-25 21:02:00,52.3,48.0,30.15,ENE,74,0.0,9.0,85,0.00,,,0.00,meteohub,2013-04-26 04:02:00,
2013-04-25 21:07:00,52.2,47.8,30.15,WSW,248,1.0,9.0,85,0.00,,,0.00,meteohub,2013-04-26 04:07:00,
2013-04-25 21:12:00,52.2,48.0,30.15,NE,38,2.0,9.0,86,0.00,,,0.00,meteohub,2013-04-26 04:12:00,
2013-04-25 21:17:00,52.3,48.2,30.15,North,5,0.0,8.0,86,0.00,,,0.00,meteohub,2013-04-26 04:17:00,
2013-04-25 21:22:00,52.3,48.2,30.16,NE,45,2.0,8.0,86,0.00,,,0.00,meteohub,2013-04-26 04:22:00,
2013-04-25 21:27:00,52.2,48.0,30.16,North,0,2.0,8.0,86,0.00,,,0.00,meteohub,2013-04-26 04:27:00,
2013-04-25 21:32:00,52.2,48.0,30.16,West,279,3.0,8.0,86,0.00,,,0.00,meteohub,2013-04-26 04:32:00,
2013-04-25 21:37:00,52.2,48.0,30.16,South,183,0.0,9.0,86,0.00,,,0.00,meteohub,2013-04-26 04:37:00,
2013-04-25 21:42:00,52.0,47.8,30.16,North,355,3.0,9.0,86,0.00,,,0.00,meteohub,2013-04-26 04:42:00,
2013-04-25 21:47:00,52.0,47.8,30.16,NE,35,0.0,10.0,86,0.00,,,0.00,meteohub,2013-04-26 04:47:00,
2013-04-25 21:52:00,52.0,47.8,30.16,North,355,8.0,11.0,86,0.00,,,0.00,meteohub,2013-04-26 04:52:00,
2013-04-25 21:57:00,51.8,48.0,30.16,North,355,5.0,13.0,87,0.00,,,0.00,meteohub,2013-04-26 04:57:00,
2013-04-25 22:02:00,51.8,48.0,30.17,NNW,346,9.0,13.0,87,0.00,,,0.00,meteohub,2013-04-26 05:02:00,
2013-04-25 22:07:00,51.6,47.8,30.17,NNE,25,2.0,14.0,87,0.00,,,0.00,meteohub,2013-04-26 05:07:00,
2013-04-25 22:12:00,51.6,47.8,30.16,ESE,113,2.0,14.0,87,0.00,,,0.00,meteohub,2013-04-26 05:12:00,
2013-04-25 22:17:00,51.8,48.0,30.16,NE,35,2.0,14.0,87,0.00,,,0.00,meteohub,2013-04-26 05:17:00,
2013-04-25 22:22:00,51.8,48.0,30.17,NNW,348,3.0,10.0,87,0.00,,,0.00,meteohub,2013-04-26 05:22:00,
2013-04-25 22:27:00,51.4,47.5,30.17,NW,322,8.0,9.0,86,0.00,,,0.00,meteohub,2013-04-26 05:27:00,
2013-04-25 22:32:00,51.4,47.7,30.17,NW,323,2.0,11.0,87,0.00,,,0.00,meteohub,2013-04-26 05:32:00,
2013-04-25 22:37:00,51.4,47.7,30.17,North,0,7.0,11.0,87,0.00,,,0.00,meteohub,2013-04-26 05:37:00,
2013-04-25 22:42:00,51.4,47.7,30.16,NNW,340,2.0,11.0,87,0.00,,,0.00,meteohub,2013-04-26 05:42:00,
2013-04-25 22:47:00,51.4,47.7,30.16,North,0,2.0,11.0,87,0.00,,,0.00,meteohub,2013-04-26 05:47:00,
2013-04-25 22:52:00,51.3,47.5,30.16,NW,306,6.0,11.0,87,0.00,,,0.00,meteohub,2013-04-26 05:52:00,
2013-04-25 22:57:00,51.3,47.5,30.17,NNW,333,0.0,10.0,87,0.00,,,0.00,meteohub,2013-04-26 05:57:00,
2013-04-25 23:02:00,51.3,47.5,30.16,ENE,57,0.0,10.0,87,0.00,,,0.00,meteohub,2013-04-26 06:02:00,
2013-04-25 23:07:00,51.3,47.5,30.16,NNE,13,3.0,9.0,87,0.00,,,0.00,meteohub,2013-04-26 06:07:00,
2013-04-25 23:12:00,51.3,47.5,30.16,NW,325,0.0,9.0,87,0.00,,,0.00,meteohub,2013-04-26 06:12:00,
2013-04-25 23:17:00,51.1,47.3,30.17,West,266,3.0,11.0,87,0.00,,,0.00,meteohub,2013-04-26 06:17:00,
2013-04-25 23:23:00,51.1,47.3,30.17,NNE,30,1.0,11.0,87,0.00,,,0.00,meteohub,2013-04-26 06:23:00,
2013-04-25 23:28:00,51.1,47.3,30.16,North,5,1.0,11.0,87,0.00,,,0.00,meteohub,2013-04-26 06:28:00,
2013-04-25 23:33:00,51.1,47.3,30.16,NNW,338,2.0,9.0,87,0.00,,,0.00,meteohub,2013-04-26 06:33:00,
2013-04-25 23:38:00,51.1,47.3,30.16,North,5,1.0,10.0,87,0.00,,,0.00,meteohub,2013-04-26 06:38:00,
2013-04-25 23:43:00,51.1,47.7,30.17,North,355,5.0,10.0,88,0.00,,,0.00,meteohub,2013-04-26 06:43:00,
2013-04-25 23:48:00,51.1,47.7,30.17,NNE,17,2.0,10.0,88,0.00,,,0.00,meteohub,2013-04-26 06:48:00,
2013-04-25 23:53:00,51.1,47.7,30.17,NE,36,0.0,10.0,88,0.00,,,0.00,meteohub,2013-04-26 06:53:00,
2013-04-25 23:58:00,50.7,47.3,30.17,North,5,6.0,10.0,88,0.00,,,0.00,meteohub,2013-04-26 06:58:00,